Retour au catalogue

Lapan A3

LAPAN A3

ActifRadio amateurSSO
NORAD 41603·PAYLOAD·🇮🇩 Indonesia

Lancé Jun 22, 2016 depuis Satish Dhawan Space Centre

Loading…

Prochains Passages (prochaines 24 heures)

TLE

FraisSource: AMSAT

Époque: Sep 14, 2026, 14:17 UTC

1 41603U 16040E   26257.59556161  .00002936  00000-0  92570-4 0  9992
2 41603  97.1566 250.8699 0011823  60.3065 299.9354 15.33594582568515

Suivez Lapan A3 en temps réel avec AllMySat

Download on the App Store